This is the latest recevied weather packets stored in our database for station/object KG7MRB. If no packets are shown the sender has not sent any weather packets the latest 10 day(s).
| Time | Temp. | Humidity | Pressure | Rain* | Wind** | Luminosity | Snow |
|---|---|---|---|---|---|---|---|
| 1777608187 | 13.33° C | 80% | 1034.4 hPa | 0 mm | - | 0 W/m² | - |
| 1777607883 | 13.89° C | 78% | 1034.6 hPa | 0 mm | - | 0 W/m² | - |
| 1777607579 | 13.89° C | 78% | 1034.5 hPa | 0 mm | - | 0 W/m² | - |
| 1777607276 | 13.89° C | 78% | 1034.5 hPa | 0 mm | - | 0 W/m² | - |
| 1777606972 | 14.44° C | 77% | 1034.7 hPa | 0 mm | - | 0 W/m² | - |
| 1777606668 | 15° C | 76% | 1034.4 hPa | 0 mm | - | 0 W/m² | - |
| 1777606364 | 15° C | 76% | 1034.3 hPa | 0 mm | - | 1 W/m² | - |
| 1777606058 | 15° C | 74% | 1034.5 hPa | 0 mm | - | 2 W/m² | - |
| 1777605754 | 15.56° C | 73% | 1034.4 hPa | 0 mm | - | 2 W/m² | - |
| 1777605453 | 15.56° C | 67% | 1034.4 hPa | 0 mm | - | 3 W/m² | - |
| 1777605151 | 16.11° C | 67% | 1034.5 hPa | 0 mm | - | 5 W/m² | - |
| 1777604846 | 16.11° C | 66% | 1034.3 hPa | 0 mm | - | 7 W/m² | - |
| 1777604542 | 16.67° C | 66% | 1034.3 hPa | 0 mm | - | 8 W/m² | - |
| 1777604238 | 16.67° C | 64% | 1034.5 hPa | 0 mm | - | 10 W/m² | - |
| 1777603934 | 17.22° C | 63% | 1034.6 hPa | 0 mm | - | 13 W/m² | - |
| 1777603631 | 17.22° C | 62% | 1034.4 hPa | 0 mm | - | 16 W/m² | - |
| 1777603327 | 17.78° C | 61% | 1034.5 hPa | 0 mm | - | 19 W/m² | - |
| 1777603022 | 17.78° C | 62% | 1034.5 hPa | 0 mm | - | 22 W/m² | - |
| 1777602718 | 18.33° C | 62% | 1034.5 hPa | 0 mm | - | 25 W/m² | - |
| 1777602412 | 18.89° C | 60% | 1034.5 hPa | 0 mm | - | 27 W/m² | - |
| 1777602110 | 18.89° C | 59% | 1034.7 hPa | 0 mm | - | 29 W/m² | - |
| 1777601804 | 19.44° C | 61% | 1034.6 hPa | 0 mm | - | 31 W/m² | - |
| 1777601500 | 20° C | 59% | 1034.6 hPa | 0 mm | - | 32 W/m² | - |
| 1777601195 | 20.56° C | 56% | 1034.6 hPa | 0 mm | - | 33 W/m² | - |
| 1777600894 | 21.11° C | 51% | 1034.6 hPa | 0 mm | - | 35 W/m² | - |
* Rain latest hour (hover to see other rain measurements)
** Current wind speed in m/s (hover to see current wind gust speed)